Regional Weather Roundup
Issued by NWS

Home | Current Version | Previous Version | Text Only | Print | Product List | Glossary Off
Versions: 1 2 3 4 5 6 7 8 9 10 11 12 13 14 15 16 17 18 19 20 21 22 23 24 25 26 27 28 29 30 31 32 33 34 35 36 37 38 39 40 41 42 43 44 45 46 47 48 49 50

000
ASUS43 KOAX 250202
RWRNE

WEATHER ROUNDUP FOR NEBRASKA
NATIONAL WEATHER SERVICE OMAHA NE
800 PM CST TUE JAN 24 2017

NOTES: SATELLITE DATA IS BEING USED TO AUGMENT CLOUD COVER ABOVE
       12000 FEET.
       "FAIR" INDICATES FEW OR NO CLOUDS BELOW 12,000 FEET WITH NO
       SIGNIFICANT WEATHER AND/OR OBSTRUCTIONS TO VISIBILITY.

  * THESE STATIONS DO NOT REPORT WEATHER SUCH AS RAIN...SNOW OR FOG.

NEZ001>004-019>022-054>056-250300-
NEBRASKA PANHANDLE

CITY           SKY/WX    TMP DP  RH WIND       PRES   REMARKS
SCOTTSBLUFF    LGT SNOW  20  15  81 NW10      29.83R WCI   9
ALLIANCE       MIX PCPN  18  14  84 N21       29.79R FOG     WCI   1
CHADRON        LGT SNOW  20  16  84 N13       29.86R FOG     WCI   7
KIMBALL        CLOUDY    17  16  94 N21G26    29.76R WCI   0
SIDNEY         CLOUDY    18  13  80 N21       29.77R WCI   1
$$

NEZ057>060-069>072-079>082-250300-
SOUTHWEST NEBRASKA

CITY           SKY/WX    TMP DP  RH WIND       PRES   REMARKS
NORTH PLATTE   CLEAR     24  18  77 N18G24    29.68R WCI  10
IMPERIAL       CLOUDY    24  18  77 N28G36    29.73R WCI   7
LEXINGTON      CLOUDY    30  27  88 N17       29.64R WCI  18
MCCOOK         CLOUDY    29  24  82 NW23G29   29.67R WCI  15
OGALLALA       CLOUDY    24  19  80 NW23G30   29.74R WCI   8
$$

NEZ005>010-023>029-035>040-094-250300-
NORTH CENTRAL NEBRASKA

CITY           SKY/WX    TMP DP  RH WIND       PRES   REMARKS
VALENTINE      LGT SNOW  20  16  84 N20G32    29.75R VSB 1   WCI   4
AINSWORTH      CLOUDY    24  23  99 NW22      29.71R WCI   8
BROKEN BOW     FLURRIES  28  26  92 N21       29.63R WCI  15
O`NEILL        CLOUDY    29  28  97 N13       29.67R WCI  19
ORD            CLOUDY    29  25  85 N14       29.62R FOG     WCI  18
THEDFORD       LGT SNOW  22  20  91 NW20G29   29.71R WCI   7
$$

NEZ041-046>049-061>064-073>077-083>087-250300-
SOUTH CENTRAL NEBRASKA

CITY           SKY/WX    TMP DP  RH WIND       PRES   REMARKS
GRAND ISLAND   CLOUDY    30  30 100 N7        29.59R FOG     WCI  23
AURORA         CLOUDY    31  31 100 N6        29.58R FOG     WCI  25
HASTINGS       CLOUDY    31  29  92 NW10      29.60R WCI  22
HEBRON         CLOUDY    32  32 100 NW7       29.58R FOG     WCI  26
HOLDREGE       CLOUDY    30  28  90 NW8       29.61R WCI  23
KEARNEY *      CLOUDY    30  25  80 NW7       29.61R WCI  23
YORK           MOCLDY    32  32 100 CALM      29.58R FOG
$$

NEZ011>018-030>034-042>045-250300-
NORTHEAST NEBRASKA

CITY           SKY/WX    TMP DP  RH WIND       PRES   REMARKS
NORFOLK        CLOUDY    30  27  88 NE9       29.60R FOG     WCI  22
ALBION         CLOUDY    31  28  88 N8        29.60R FOG     WCI  24
BLAIR          MIX PCPN  32  32  99 NE10      29.56S WCI  24
FREMONT        LGT SNOW  32  32 100 NE5       29.59R WCI  27
TEKAMAH        CLOUDY    32  30  92 NE10      29.60S FOG     WCI  24
WAYNE          MIX PCPN  31  30  96 NE15      29.62R WCI  20
$$

NEZ050>053-065>068-078-088>093-250300-
SOUTHEAST NEBRASKA

CITY           SKY/WX    TMP DP  RH WIND       PRES   REMARKS
LINCOLN        LGT SNOW  33  32  96 N8        29.57R FOG     WCI  26
OMAHA EPPLEY   DRIZZLE   33  28  81 NE5       29.58R WCI  29
BEATRICE       LGT RAIN  34  33  94 N5        29.54R WCI  30
FALLS CITY     MOCLDY    39  34  82 NE7       29.50S WCI  34
NEBRASKA CITY  RAIN      34  32  93 NE9       29.53S WCI  26
PLATTSMOUTH    LGT SNOW  33  29  86 N8        29.55R WCI  26
$$

NEZ044-045-051>053-067-250300-
OMAHA AREA

CITY           SKY/WX    TMP DP  RH WIND       PRES   REMARKS
OMAHA EPPLEY   DRIZZLE   33  28  81 NE5       29.58R WCI  29
BLAIR          MIX PCPN  32  32  99 NE10      29.56S WCI  24
FREMONT        LGT SNOW  32  32 100 NE5       29.59R WCI  27
MILLARD        LGT RAIN  35  33  92 NE6       29.57S WCI  30
OFFUTT AFB     FLURRIES  33  33 100 NE8       29.56S WCI  25
PLATTSMOUTH    LGT SNOW  33  29  86 N8        29.55R WCI  26
WAHOO          LGT SNOW  32  31  98 N7        29.57S WCI  26
$$




USA.gov is the U.S. government's official web portal to all federal, state and local government web resources and services.